sat.trackr.live / text

‹ back to catalog

STARLINK-2756

NORAD 48683 · 2021-044AX

PAYLOAD ACTIVE UNKNOWN

§ Identity

Operator
Country
US
Launch date
2021-05-26
Launch site
AFETR
Launch vehicle
Mass (kg)
RCS (m²)

Purposes: comms

External: N2YO · Heavens-Above · Gunter

§ Orbital elements

Epoch: 2026-09-19T12:17:59.252640Z

Period
94.01 min
Inclination
53.1606°
Eccentricity
0.0001495
Mean motion
15.31700478 rev/d
Perigee alt
469.7 km
Apogee alt
471.8 km
Semi-major
6,848.9 km
B*
2.1685e-5
RAAN
243.1795°
Arg perigee
82.4630°
Mean anomaly
277.6541°
Rev number
29,420

§ Raw data

STARLINK-27561 48683U 21044AX  26262.51249135  .00000308  00000+0  21685-4 0  99942 48683  53.1606 243.1795 0001495  82.4630 277.6541 15.31700478294200

JSON: /api/v1/satellites/48683 · /tle

For live sub-satellite position, see the globe view (requires WebGL).

§ Visibility from observer

Set your observer location to see the next 7 days of passes ≥ 10°. The values pass through the URL so the page stays shareable.

No JS? Fill the form by hand. The geolocation button needs JavaScript.